NOAA 16 DEB, 41397

Orbit data source: Space-Track

NOAA 16 DEB, 41397 is space debris in SSO originally from a launch on Thu, 21 Sep 2000 UTC launched from the Air Force Western Test Range (AFWTR). Debris objects in space refer to the collection of defunct objects orbiting the Earth. Examples of debris include non-operational satellites, rocket bodies, and fragments generated from explosions, collisions, or faulty payload assembly.

Loading next visibility...
Identifier
41397, 2000-055KA
Orbit
SSO
Country
Flag of USUS
Related business
Manufacturer
Unknown
Mission
Spacecraft
Bus & Motor
Unknown
Mass
Unknown
Launch date (UTC)
2000-09-21 (26 years ago)
Launch vehicle
Unknown
Launch site
Air Force Western Test Range (AFWTR)
Object type
Payload
Rocket body
Debris
Shape & HBR
Unknown shape, 0.1 m
Radar Cross Section
Small (<0.1 m²)

Expand to show TLE details & history
Last TLE update: 10 hours ago

TLE from 10 hours ago
0 NOAA 16 DEB
1 41397U 00055KA  26119.95757292  .00007332  00000-0  18264-2 0  9997
2 41397  98.9386 301.0547 0028763 251.7637 108.0425 14.51739782528626
Epoch: 2026-04-29T22:58Z
TLE epoch observation values (Epoch: 2026-04-29T22:58:54.300Z)
Latitude
-0.00003°
Longitude
98.41738°
Altitude
729.3 km
Speed
7.487 km/s
True Right ascension
20h 04m 13s
True Declination
0° 00' 00"
Sunlit
Object was in daylight at epoch
Visualization orbit readout
Latitude
Unknown
Longitude
Unknown
Altitude
Unknown
Speed
Unknown
Apparent Right ascension
Unknown
Apparent Declination
Unknown
Sunlit
N/A
Visualization observer readout
Local Sidereal Time
16:09:07
Azimuth
Unknown
Elevation
Unknown
Doppler factor
Unknown
Orbital elements
Apogee altitude
737.507 km
Perigee altitude
696.691 km
Semi-major axis
7,095.236 km
Eccentricity
0.00288
Inclination
98.9386°
RAAN
301.0547°
Arg. of periapsis
251.7637°
True anomaly
108.35554°
Mean anomaly
108.0425°
Eccentric anomaly
108.19906°
Mean motion
3.63156 °/min
Orbital period
99.13 mins
BSTAR
0.0018264
Loading maneuver chart data...
Computing Atmospheric mass density...
Loading historical data...
Loading historical data...
Loading historical data...
Loading historical data...
Loading historical data...
Loading historical data...
Loading historical data...

Documentation

Showing up to 5 results
|